sat.trackr.live / text

‹ back to catalog

STARLINK-31706

NORAD 59437 · 2024-065S

PAYLOAD ACTIVE UNKNOWN

§ Identity

Operator
Country
US
Launch date
2024-04-07
Launch site
AFWTR
Launch vehicle
Mass (kg)
RCS (m²)

Purposes: comms

External: N2YO · Heavens-Above · Gunter

§ Orbital elements

Epoch: 2026-09-21T20:08:05.125344Z

Period
93.85 min
Inclination
53.1613°
Eccentricity
0.0001462
Mean motion
15.34385267 rev/d
Perigee alt
461.7 km
Apogee alt
463.7 km
Semi-major
6,840.9 km
B*
2.0342e-5
RAAN
91.0987°
Arg perigee
74.1292°
Mean anomaly
285.9872°
Rev number
13,895

§ Raw data

STARLINK-317061 59437U 24065S   26264.83894821  .00000311  00000+0  20342-4 0  99972 59437  53.1613  91.0987 0001462  74.1292 285.9872 15.34385267138952

JSON: /api/v1/satellites/59437 · /tle

For live sub-satellite position, see the globe view (requires WebGL).

§ Visibility from observer

Set your observer location to see the next 7 days of passes ≥ 10°. The values pass through the URL so the page stays shareable.

No JS? Fill the form by hand. The geolocation button needs JavaScript.